Time,TemperatureF,DewpointF,PressureIn,WindDirection,WindDirectionDegrees,WindSpeedMPH,WindSpeedGustMPH,Humidity,HourlyPrecipIn,Conditions,Clouds,dailyrainin,SoftwareType,DateUTC
2014-02-16 00:11:00,11.5,8.6,29.83,West,270,10.4,-999.0,88,-99.99,,,0.00,Acu-Link.com,2014-02-16 05:11:00,
2014-02-16 00:26:00,11.5,8.6,29.84,West,270,8.3,-999.0,88,-99.99,,,0.00,Acu-Link.com,2014-02-16 05:26:00,
2014-02-16 00:42:00,11.5,9.1,29.84,West,270,3.7,-999.0,90,-99.99,,,0.00,Acu-Link.com,2014-02-16 05:42:00,
2014-02-16 00:57:00,11.7,9.6,29.85,NNE,22,4.2,-999.0,91,-99.99,,,0.00,Acu-Link.com,2014-02-16 05:57:00,
2014-02-16 01:12:00,11.5,9.4,29.86,NW,315,5.8,-999.0,91,-99.99,,,0.00,Acu-Link.com,2014-02-16 06:12:00,
2014-02-16 01:27:00,11.1,9.2,29.86,West,270,6.3,-999.0,92,-99.99,,,0.00,Acu-Link.com,2014-02-16 06:27:00,
2014-02-16 01:42:00,11.1,9.5,29.85,West,270,3.2,-999.0,93,-99.99,,,0.00,Acu-Link.com,2014-02-16 06:42:00,
2014-02-16 01:58:00,11.1,9.5,29.85,WNW,292,5.8,-999.0,93,-99.99,,,0.00,Acu-Link.com,2014-02-16 06:58:00,
2014-02-16 02:13:00,11.1,9.5,29.86,West,270,5.8,-999.0,93,-99.99,,,0.00,Acu-Link.com,2014-02-16 07:13:00,
2014-02-16 02:28:00,11.1,9.5,29.86,West,270,6.8,-999.0,93,-99.99,,,0.00,Acu-Link.com,2014-02-16 07:28:00,
2014-02-16 02:44:00,11.1,9.5,29.86,West,270,6.8,-999.0,93,-99.99,,,0.00,Acu-Link.com,2014-02-16 07:44:00,
2014-02-16 02:59:00,11.1,9.5,29.87,West,270,4.7,-999.0,93,-99.99,,,0.00,Acu-Link.com,2014-02-16 07:59:00,
2014-02-16 03:14:00,11.1,9.5,29.86,West,270,6.8,-999.0,93,-99.99,,,0.00,Acu-Link.com,2014-02-16 08:14:00,
2014-02-16 03:29:00,10.8,9.9,29.86,West,270,4.7,-999.0,96,-99.99,,,0.00,Acu-Link.com,2014-02-16 08:29:00,
2014-02-16 03:44:00,10.9,10.4,29.85,West,270,5.3,-999.0,98,-99.99,,,0.00,Acu-Link.com,2014-02-16 08:44:00,
2014-02-16 04:00:00,11.3,10.8,29.84,West,270,6.3,-999.0,98,-99.99,,,0.00,Acu-Link.com,2014-02-16 09:00:00,
2014-02-16 04:15:00,11.7,11.2,29.84,West,270,7.3,-999.0,98,-99.99,,,0.00,Acu-Link.com,2014-02-16 09:15:00,
2014-02-16 04:30:00,12.2,11.5,29.84,West,270,4.2,-999.0,97,-99.99,,,0.00,Acu-Link.com,2014-02-16 09:30:00,
2014-02-16 04:45:00,12.6,11.7,29.84,West,270,4.7,-999.0,96,-99.99,,,0.00,Acu-Link.com,2014-02-16 09:45:00,
2014-02-16 05:01:00,12.7,11.8,29.84,WSW,247,3.7,-999.0,96,-99.99,,,0.00,Acu-Link.com,2014-02-16 10:01:00,
2014-02-16 05:16:00,12.7,11.8,29.84,WNW,292,3.2,-999.0,96,-99.99,,,0.00,Acu-Link.com,2014-02-16 10:16:00,
2014-02-16 05:31:00,12.9,12.0,29.83,NW,315,4.2,-999.0,96,-99.99,,,0.00,Acu-Link.com,2014-02-16 10:31:00,
2014-02-16 05:46:00,12.9,12.2,29.82,West,270,6.3,-999.0,97,-99.99,,,0.00,Acu-Link.com,2014-02-16 10:46:00,
2014-02-16 06:02:00,12.9,12.2,29.81,WSW,247,7.8,-999.0,97,-99.99,,,0.00,Acu-Link.com,2014-02-16 11:02:00,
2014-02-16 06:17:00,12.9,12.2,29.81,West,270,5.8,-999.0,97,-99.99,,,0.00,Acu-Link.com,2014-02-16 11:17:00,
2014-02-16 06:32:00,13.3,12.4,29.81,West,270,6.3,-999.0,96,-99.99,,,0.00,Acu-Link.com,2014-02-16 11:32:00,
2014-02-16 06:47:00,12.9,12.0,29.82,West,270,4.2,-999.0,96,-99.99,,,0.00,Acu-Link.com,2014-02-16 11:47:00,
2014-02-16 07:03:00,13.3,12.4,29.83,West,270,7.3,-999.0,96,-99.99,,,0.00,Acu-Link.com,2014-02-16 12:03:00,
2014-02-16 07:18:00,13.3,12.4,29.83,WNW,292,6.3,-999.0,96,-99.99,,,0.00,Acu-Link.com,2014-02-16 12:18:00,
2014-02-16 07:33:00,13.5,12.6,29.83,SW,225,10.4,-999.0,96,-99.99,,,0.00,Acu-Link.com,2014-02-16 12:33:00,
2014-02-16 07:48:00,13.5,12.6,29.83,West,270,5.8,-999.0,96,-99.99,,,0.00,Acu-Link.com,2014-02-16 12:48:00,
2014-02-16 08:03:00,13.6,12.7,29.82,West,270,3.7,-999.0,96,-99.99,,,0.00,Acu-Link.com,2014-02-16 13:03:00,
2014-02-16 08:19:00,14.2,13.0,29.83,WSW,247,1.7,-999.0,95,-99.99,,,0.00,Acu-Link.com,2014-02-16 13:19:00,
2014-02-16 08:34:00,14.9,13.5,29.81,WSW,247,4.7,-999.0,94,-99.99,,,0.00,Acu-Link.com,2014-02-16 13:34:00,
2014-02-16 08:49:00,16.2,14.0,29.80,SSW,202,4.2,-999.0,91,-99.99,,,0.00,Acu-Link.com,2014-02-16 13:49:00,
2014-02-16 09:04:00,16.7,14.3,29.80,SSW,202,3.7,-999.0,90,-99.99,,,0.00,Acu-Link.com,2014-02-16 14:04:00,
2014-02-16 09:19:00,18.0,15.1,29.80,South,180,3.2,-999.0,88,-99.99,,,0.00,Acu-Link.com,2014-02-16 14:19:00,
2014-02-16 09:35:00,18.0,14.8,29.79,SW,225,5.8,-999.0,87,-99.99,,,0.00,Acu-Link.com,2014-02-16 14:35:00,
2014-02-16 09:50:00,18.5,15.0,29.79,West,270,3.7,-999.0,86,-99.99,,,0.00,Acu-Link.com,2014-02-16 14:50:00,
2014-02-16 10:05:00,19.4,15.4,29.79,West,270,5.8,-999.0,84,-99.99,,,0.00,Acu-Link.com,2014-02-16 15:05:00,
2014-02-16 10:20:00,19.8,15.5,29.80,West,270,4.7,-999.0,83,-99.99,,,0.00,Acu-Link.com,2014-02-16 15:20:00,
2014-02-16 10:35:00,20.3,15.4,29.80,West,270,5.8,-999.0,81,-99.99,,,0.00,Acu-Link.com,2014-02-16 15:35:00,
2014-02-16 10:51:00,20.8,15.9,29.80,ESE,112,4.7,-999.0,81,-99.99,,,0.00,Acu-Link.com,2014-02-16 15:51:00,
2014-02-16 11:06:00,21.4,16.2,29.81,SW,225,5.3,-999.0,80,-99.99,,,0.00,Acu-Link.com,2014-02-16 16:06:00,
2014-02-16 11:21:00,22.1,16.9,29.81,West,270,3.2,-999.0,80,-99.99,,,0.00,Acu-Link.com,2014-02-16 16:21:00,
2014-02-16 11:37:00,22.1,17.2,29.82,West,270,2.7,-999.0,81,-99.99,,,0.00,Acu-Link.com,2014-02-16 16:37:00,
2014-02-16 11:52:00,21.6,18.6,29.82,NNW,337,5.3,-999.0,88,-99.99,,,0.00,Acu-Link.com,2014-02-16 16:52:00,
2014-02-16 12:07:00,22.1,18.3,29.81,West,270,4.7,-999.0,85,-99.99,,,0.00,Acu-Link.com,2014-02-16 17:07:00,
2014-02-16 12:23:00,21.9,18.4,29.81,SW,225,4.7,-999.0,86,-99.99,,,0.00,Acu-Link.com,2014-02-16 17:23:00,
2014-02-16 12:38:00,21.6,18.6,29.80,West,270,4.2,-999.0,88,-99.99,,,0.00,Acu-Link.com,2014-02-16 17:38:00,
2014-02-16 12:53:00,21.9,20.2,29.80,West,270,2.7,-999.0,93,-99.99,,,0.00,Acu-Link.com,2014-02-16 17:53:00,
2014-02-16 13:08:00,21.7,20.7,29.79,West,270,3.2,-999.0,96,-99.99,,,0.00,Acu-Link.com,2014-02-16 18:08:00,
2014-02-16 13:23:00,22.3,21.1,29.79,West,270,2.2,-999.0,95,-99.99,,,0.00,Acu-Link.com,2014-02-16 18:23:00,
2014-02-16 13:39:00,22.6,21.4,29.79,WNW,292,3.7,-999.0,95,-99.99,,,0.00,Acu-Link.com,2014-02-16 18:39:00,
2014-02-16 13:54:00,23.9,22.2,29.78,West,270,5.3,-999.0,93,-99.99,,,0.00,Acu-Link.com,2014-02-16 18:54:00,
2014-02-16 14:09:00,23.2,22.5,29.80,NW,315,4.2,-999.0,97,-99.99,,,0.00,Acu-Link.com,2014-02-16 19:09:00,
2014-02-16 14:24:00,23.9,22.9,29.79,West,270,2.7,-999.0,96,-99.99,,,0.00,Acu-Link.com,2014-02-16 19:24:00,
2014-02-16 14:39:00,23.5,23.0,29.78,West,270,3.2,-999.0,98,-99.99,,,0.00,Acu-Link.com,2014-02-16 19:39:00,
2014-02-16 14:55:00,23.4,22.9,29.79,West,270,5.3,-999.0,98,-99.99,,,0.00,Acu-Link.com,2014-02-16 19:55:00,
2014-02-16 15:10:00,23.5,23.0,29.80,West,270,3.7,-999.0,98,-99.99,,,0.00,Acu-Link.com,2014-02-16 20:10:00,
2014-02-16 15:25:00,23.5,23.3,29.81,SW,225,3.2,-999.0,99,-99.99,,,0.00,Acu-Link.com,2014-02-16 20:25:00,
2014-02-16 15:40:00,23.4,23.2,29.80,West,270,5.3,-999.0,99,-99.99,,,0.00,Acu-Link.com,2014-02-16 20:40:00,
2014-02-16 15:56:00,23.4,23.2,29.81,West,270,4.7,-999.0,99,-99.99,,,0.00,Acu-Link.com,2014-02-16 20:56:00,
2014-02-16 16:11:00,23.0,22.8,29.82,SW,225,5.3,-999.0,99,-99.99,,,0.00,Acu-Link.com,2014-02-16 21:11:00,
2014-02-16 16:26:00,22.6,22.4,29.82,West,270,10.9,-999.0,99,-99.99,,,0.00,Acu-Link.com,2014-02-16 21:26:00,
2014-02-16 16:41:00,22.3,22.1,29.83,WNW,292,6.3,-999.0,99,-99.99,,,0.00,Acu-Link.com,2014-02-16 21:41:00,
2014-02-16 16:57:00,22.1,21.9,29.84,WNW,292,5.3,-999.0,99,-99.99,,,0.00,Acu-Link.com,2014-02-16 21:57:00,
2014-02-16 17:12:00,21.7,21.5,29.84,West,270,8.3,-999.0,99,-99.99,,,0.00,Acu-Link.com,2014-02-16 22:12:00,
2014-02-16 17:27:00,21.6,21.4,29.86,West,270,6.8,-999.0,99,-99.99,,,0.00,Acu-Link.com,2014-02-16 22:27:00,
2014-02-16 17:42:00,21.4,21.2,29.88,West,270,7.8,-999.0,99,-99.99,,,0.00,Acu-Link.com,2014-02-16 22:42:00,
2014-02-16 17:58:00,20.8,20.6,29.89,West,270,7.3,-999.0,99,-99.99,,,0.00,Acu-Link.com,2014-02-16 22:58:00,
2014-02-16 18:13:00,20.5,20.3,29.89,West,270,6.3,-999.0,99,-99.99,,,0.00,Acu-Link.com,2014-02-16 23:13:00,
2014-02-16 18:28:00,20.1,19.9,29.92,West,270,8.3,-999.0,99,-99.99,,,0.00,Acu-Link.com,2014-02-16 23:28:00,
2014-02-16 18:43:00,19.9,19.7,29.93,West,270,8.3,-999.0,99,-99.99,,,0.00,Acu-Link.com,2014-02-16 23:43:00,
2014-02-16 18:59:00,19.9,19.7,29.94,West,270,6.3,-999.0,99,-99.99,,,0.00,Acu-Link.com,2014-02-16 23:59:00,
2014-02-16 19:14:00,19.6,19.4,29.94,West,270,8.9,-999.0,99,-99.99,,,0.00,Acu-Link.com,2014-02-17 00:14:00,
2014-02-16 19:29:00,19.2,19.0,29.96,West,270,13.0,-999.0,99,-99.99,,,0.00,Acu-Link.com,2014-02-17 00:29:00,
2014-02-16 19:44:00,19.0,18.8,29.95,West,270,8.3,-999.0,99,-99.99,,,0.00,Acu-Link.com,2014-02-17 00:44:00,
2014-02-16 20:00:00,18.9,18.7,29.97,West,270,7.8,-999.0,99,-99.99,,,0.00,Acu-Link.com,2014-02-17 01:00:00,
2014-02-16 20:15:00,18.9,18.7,29.97,West,270,5.8,-999.0,99,-99.99,,,0.00,Acu-Link.com,2014-02-17 01:15:00,
2014-02-16 20:30:00,18.9,18.7,29.98,WNW,292,6.3,-999.0,99,-99.99,,,0.00,Acu-Link.com,2014-02-17 01:30:00,
2014-02-16 20:45:00,18.9,18.7,29.99,West,270,4.2,-999.0,99,-99.99,,,0.00,Acu-Link.com,2014-02-17 01:45:00,
2014-02-16 21:01:00,18.9,18.7,30.00,WNW,292,4.7,-999.0,99,-99.99,,,0.00,Acu-Link.com,2014-02-17 02:01:00,
2014-02-16 21:16:00,18.9,18.7,30.01,West,270,5.8,-999.0,99,-99.99,,,0.00,Acu-Link.com,2014-02-17 02:16:00,
2014-02-16 21:31:00,18.9,18.7,30.02,West,270,4.2,-999.0,99,-99.99,,,0.00,Acu-Link.com,2014-02-17 02:31:00,
2014-02-16 21:46:00,18.9,18.7,30.02,West,270,4.2,-999.0,99,-99.99,,,0.00,Acu-Link.com,2014-02-17 02:46:00,
2014-02-16 22:02:00,18.9,18.7,30.02,West,270,7.3,-999.0,99,-99.99,,,0.00,Acu-Link.com,2014-02-17 03:02:00,
2014-02-16 22:17:00,18.7,18.5,30.03,West,270,7.8,-999.0,99,-99.99,,,0.00,Acu-Link.com,2014-02-17 03:17:00,
2014-02-16 22:32:00,18.3,18.1,30.03,West,270,4.2,-999.0,99,-99.99,,,0.00,Acu-Link.com,2014-02-17 03:32:00,
2014-02-16 22:47:00,17.8,17.6,30.05,WNW,292,4.2,-999.0,99,-99.99,,,0.00,Acu-Link.com,2014-02-17 03:47:00,
2014-02-16 23:02:00,17.8,17.6,30.05,WNW,292,7.3,-999.0,99,-99.99,,,0.00,Acu-Link.com,2014-02-17 04:02:00,
2014-02-16 23:18:00,17.4,17.2,30.06,NNW,337,5.8,-999.0,99,-99.99,,,0.00,Acu-Link.com,2014-02-17 04:18:00,
2014-02-16 23:33:00,16.9,16.7,30.06,WSW,247,6.8,-999.0,99,-99.99,,,0.00,Acu-Link.com,2014-02-17 04:33:00,
2014-02-16 23:48:00,16.9,16.7,30.07,West,270,7.3,-999.0,99,-99.99,,,0.00,Acu-Link.com,2014-02-17 04:48:00,